Weather History for Dickinson, ND

Change the Weather History Date:

Thursday, January 17, 2013

  Actual Average Record
Temperature  
Mean Temperature 32 °F 16 °F  
Max Temperature 36 °F 26 °F 51 °F (1974)
Min Temperature 28 °F 6 °F -40 °F (1943)
Degree Days  
Heating Degree Days 33 49  
Month to date heating degree days 768 833  
Since 1 July heating degree days 4159 4370  
Cooling Degree Days 0 0  
Month to date cooling degree days 0 0  
Year to date cooling degree days 0 0  
Moisture  
Dew Point 27 °F    
Average Humidity 78    
Maximum Humidity 92    
Minimum Humidity 64    
Precipitation  
Precipitation 0.00 in 0.01 in 0.33 in (1996)
Month to date precipitation 0.01 0.18  
Year to date precipitation 0.01 0.18  
Sea Level Pressure  
Sea Level Pressure 30.18 in    
Wind  
Wind Speed 10 mph (SW)    
Max Wind Speed 23 mph    
Max Gust Speed 28 mph    
Visibility 10 miles    
Events      
T = Trace of Precipitation, MM = Missing Value Source: NWS Daily Summary

Daily Weather History Graph

Daily Weather History Graph

Search for Another Location

Airport:

Trip Planner

Search our weather history database for the weather conditions in past years. The results will help you decide how hot, cold, wet, or windy it might be!

Date:

Astronomy

Jan. 17, 2013 Rise Set
Actual Time 7:30 AM MST 4:33 PM MST
Civil Twilight 6:56 AM MST 5:06 PM MST
Nautical Twilight 6:18 AM MST 5:44 PM MST
Astronomical Twilight 5:42 AM MST 6:20 PM MST
Moon 10:10 AM MST (1/17) 11:56 PM MST (1/17)
Length of Visible Light 10h 10m
Length of Day
9h 02m
Waxing Crescent, 38% of the Moon is Illuminated
Jan 17
Waxing Crescent
Jan 18
First Quarter
Jan 26
Full
Feb 3
Last Quarter
Feb 10
New

Hourly Weather History & Observations

Time (MST) Temp. Windchill Dew Point Humidity Pressure Visibility Wind Dir Wind Speed Gust Speed Precip Events Conditions
12:56 AM 30.9 °F 21.2 °F 28.0 °F 89% 30.24 in 10.0 mi NW 12.7 mph - N/A   Scattered Clouds
1:56 AM 30.9 °F 22.8 °F 28.0 °F 89% 30.26 in 10.0 mi WNW 9.2 mph - N/A   Overcast
2:56 AM 32.0 °F 23.6 °F 28.9 °F 88% 30.27 in 10.0 mi WNW 10.4 mph - N/A   Overcast
3:56 AM 32.0 °F 24.8 °F 28.9 °F 88% 30.28 in 10.0 mi WNW 8.1 mph - N/A   Overcast
4:19 AM 32.0 °F 24.8 °F 28.4 °F 87% 30.21 in 10.0 mi NW 8.1 mph - N/A   Overcast
5:56 AM 32.0 °F 23.6 °F 27.0 °F 82% 30.30 in 10.0 mi NNW 10.4 mph - N/A   Overcast
6:56 AM 30.0 °F 25.2 °F 26.1 °F 85% 30.32 in 10.0 mi NNW 4.6 mph - N/A   Overcast
7:56 AM 30.0 °F - 25.0 °F 82% 30.33 in 10.0 mi Calm Calm - N/A   Overcast
8:44 AM 28.4 °F - 24.8 °F 86% 30.26 in 10.0 mi Calm Calm - N/A   Overcast
8:56 AM 28.9 °F - 24.1 °F 82% 30.36 in 10.0 mi Calm Calm - N/A   Overcast
9:56 AM 30.0 °F 25.2 °F 26.1 °F 85% 30.34 in 10.0 mi SE 4.6 mph - N/A   Overcast
10:03 AM 30.2 °F 24.3 °F 26.6 °F 86% 30.24 in 10.0 mi SE 5.8 mph - N/A   Overcast
10:17 AM 30.2 °F 24.3 °F 26.6 °F 86% 30.24 in 10.0 mi SE 5.8 mph - N/A   Overcast
10:56 AM 30.0 °F 22.4 °F 26.1 °F 85% 30.29 in 10.0 mi SSE 8.1 mph - N/A   Overcast
11:56 AM 32.0 °F 25.6 °F 28.0 °F 85% 30.25 in 10.0 mi SSE 6.9 mph - N/A   Overcast
12:12 PM 32.0 °F 26.4 °F 28.4 °F 87% 30.15 in 10.0 mi SE 5.8 mph - N/A   Scattered Clouds
12:56 PM 33.1 °F 26.1 °F 28.9 °F 85% 30.22 in 10.0 mi SE 8.1 mph - N/A   Clear
1:56 PM 34.0 °F 25.5 °F 28.9 °F 82% 30.17 in 10.0 mi SE 11.5 mph - N/A   Partly Cloudy
2:56 PM 34.0 °F 28.0 °F 30.0 °F 85% 30.14 in 10.0 mi South 6.9 mph - N/A   Overcast
3:56 PM 35.1 °F 28.6 °F 28.9 °F 78% 30.12 in 10.0 mi South 8.1 mph - N/A   Overcast
4:56 PM 34.0 °F 25.5 °F 28.9 °F 82% 30.08 in 10.0 mi South 11.5 mph - N/A   Overcast
5:56 PM 36.0 °F 27.5 °F 28.0 °F 73% 30.06 in 10.0 mi SW 12.7 mph - N/A   Overcast
6:56 PM 34.0 °F 26.0 °F 27.0 °F 75% 30.04 in 10.0 mi WSW 10.4 mph - N/A   Overcast
7:56 PM 33.1 °F 24.9 °F 26.1 °F 75% 30.01 in 10.0 mi West 10.4 mph - N/A   Clear
8:56 PM 34.0 °F 25.0 °F 25.0 °F 70% 29.97 in 10.0 mi WSW 12.7 mph - N/A   Clear
9:56 PM 34.0 °F 24.2 °F 24.1 °F 67% 29.93 in 10.0 mi WSW 15.0 mph - N/A   Clear
10:56 PM 35.1 °F 24.1 °F 25.0 °F 67% 29.90 in 10.0 mi WSW 19.6 mph - N/A   Clear